Weather History for Morgantown, WV

Change the Weather History Date:

Friday, May 23, 2014

  Actual Average Record
Temperature  
Mean Temperature 60 °F 63 °F  
Max Temperature 71 °F 74 °F 91 °F (1966)
Min Temperature 49 °F 52 °F 34 °F (2006)
Degree Days  
Heating Degree Days 5 4  
Month to date heating degree days 114 142  
Since 1 July heating degree days 5401 5125  
Cooling Degree Days 0 2  
Month to date cooling degree days 58 32  
Year to date cooling degree days 76 48  
Growing Degree Days 10 (Base 50)    
Moisture  
Dew Point 45 °F    
Average Humidity 62    
Maximum Humidity 86    
Minimum Humidity 37    
Precipitation  
Precipitation 0.00 in 0.16 in 1.59 in (2000)
Month to date precipitation 3.89 3.37  
Year to date precipitation 14.85 15.95  
Sea Level Pressure  
Sea Level Pressure 30.05 in    
Wind  
Wind Speed 5 mph (West)    
Max Wind Speed 14 mph    
Max Gust Speed 24 mph    
Visibility 10 miles    
Events      
T = Trace of Precipitation, MM = Missing Value Source: NWS Daily Summary

Daily Weather History Graph

Daily Weather History Graph

Search for Another Location

Airport:

Trip Planner

Search our weather history database for the weather conditions in past years. The results will help you decide how hot, cold, wet, or windy it might be!

Date:

Astronomy

May. 23, 2014 Rise Set
Actual Time 5:58 AM EDT 8:34 PM EDT
Civil Twilight 5:27 AM EDT 9:05 PM EDT
Nautical Twilight 4:49 AM EDT 9:44 PM EDT
Astronomical Twilight 4:05 AM EDT 10:28 PM EDT
Moon 2:51 AM EDT (5/23) 3:26 PM EDT (5/23)
Length of Visible Light 15h 37m
Length of Day
14h 35m
Waning Crescent, 27% of the Moon is Illuminated
May 23
Waning Crescent
May 28
New
Jun 5
First Quarter
Jun 13
Full
Jun 19
Last Quarter

Hourly Weather History & Observations

Time (EDT) Temp. Dew Point Humidity Pressure Visibility Wind Dir Wind Speed Gust Speed Precip Events Conditions
12:53 AM 61.0 °F 46.0 °F 58% 30.02 in 10.0 mi Calm Calm - N/A   Mostly Cloudy
1:53 AM 57.0 °F 46.9 °F 69% 30.01 in 10.0 mi Calm Calm - N/A   Mostly Cloudy
2:53 AM 55.0 °F 46.9 °F 74% 30.00 in 10.0 mi South 3.5 mph - N/A   Clear
3:53 AM 52.0 °F 46.9 °F 83% 29.99 in 10.0 mi South 4.6 mph - N/A   Clear
4:53 AM 51.1 °F 46.9 °F 86% 29.99 in 10.0 mi Calm Calm - N/A   Clear
6:53 AM 52.0 °F 46.9 °F 83% 30.02 in 10.0 mi South 3.5 mph - N/A   Clear
7:53 AM 55.9 °F 48.9 °F 77% 30.04 in 10.0 mi Calm Calm - N/A   Clear
8:53 AM 59.0 °F 48.9 °F 69% 30.04 in 10.0 mi South 3.5 mph - N/A   Scattered Clouds
9:53 AM 66.0 °F 50.0 °F 56% 30.03 in 10.0 mi WSW 4.6 mph - N/A   Partly Cloudy
11:53 AM 68.0 °F 50.0 °F 52% 30.04 in 10.0 mi Variable 6.9 mph - N/A   Scattered Clouds
12:53 PM 68.0 °F 46.0 °F 45% 30.04 in 10.0 mi Variable 5.8 mph - N/A   Mostly Cloudy
1:53 PM 69.1 °F 43.0 °F 39% 30.04 in 10.0 mi NW 9.2 mph 18.4 mph N/A   Mostly Cloudy
2:53 PM 70.0 °F 43.0 °F 38% 30.04 in 10.0 mi WNW 11.5 mph 23.0 mph N/A   Mostly Cloudy
3:53 PM 69.1 °F 43.0 °F 39% 30.05 in 10.0 mi WNW 9.2 mph 19.6 mph N/A   Partly Cloudy
4:53 PM 68.0 °F 43.0 °F 40% 30.06 in 10.0 mi NW 8.1 mph 16.1 mph N/A   Mostly Cloudy
5:53 PM 66.9 °F 43.0 °F 42% 30.07 in 10.0 mi Variable 6.9 mph 19.6 mph N/A   Overcast
6:53 PM 66.0 °F 42.1 °F 42% 30.08 in 10.0 mi NW 6.9 mph - N/A   Overcast
7:53 PM 64.0 °F 42.1 °F 45% 30.10 in 10.0 mi Variable 6.9 mph - N/A   Partly Cloudy
8:53 PM 61.0 °F 42.1 °F 50% 30.11 in 10.0 mi Calm Calm - N/A   Clear
9:53 PM 57.9 °F 43.0 °F 58% 30.12 in 10.0 mi Calm Calm - N/A   Clear
10:53 PM 55.0 °F 43.0 °F 64% 30.14 in 10.0 mi North 4.6 mph - N/A   Clear
11:53 PM 53.1 °F 44.1 °F 71% 30.14 in 10.0 mi North 4.6 mph - N/A   Clear